Home > Weather > The Settlement > Past weeks

Flag for Christmas Island Weather for the Past 2 Weeks in The Settlement, Christmas Island

Now
77 °F

Passing clouds.


Feels Like: 78 °F
Forecast: 77 / 80 °F
Wind: No wind

Location: Christmas Island Aerodrome

Current Time: May 5, 2016 at 2:29:34 AM

Latest Report: May 5, 2016 at 2:00 AM


Visibility: 2 mi

Pressure: 29.83 "Hg

Humidity: 94%

Dew Point: 75 °F

Location of The SettlementLocation

Historic Weather in The Settlement — Graph

°F

The Settlement Temperature Yesterday

Maximum temperature yesterday: 84 °F (at 1:00 PM)
Minimum temperature yesterday: 77 °F (at 9:00 PM)
Average temperature yesterday: 80 °F

High & Low Weather Summary for the Past Weeks

 TemperatureHumidityPressure
High84 °F (Apr 21, 10:00 AM)100% (Apr 27, 6:03 AM)29.98 "Hg (Apr 27, 6:03 AM)
Low75 °F (Apr 26, 9:00 PM)66% (Apr 20, 10:00 AM)29.80 "Hg (May 4, 2:00 PM)
Average80 °F84%29.89 "Hg
* Reported Apr 20 1:00 AM — May 5 1:00 AM, The Settlement, Weather by CustomWeather, © 2016

Note: Actual official high and low records may vary slightly from our data, if they occured in-between our weather recording intervals... More about our weather records

Advertising

The Settlement Weather History for the Previous 24 Hours

Scroll right to see more
 ConditionsComfort  
Time TempWeatherWind HumidityBarometerVisibility
1:00 AM
Thu, May 5
77 °FPassing clouds.No wind94%29.86 "Hg1 mi
12:30 AM77 °FClear.2 mph94%29.86 "Hg2 mi
12:00 AM77 °FPassing clouds.3 mph100%29.86 "Hg3 mi
11:00 PM
Wed, May 4
77 °FPassing clouds.2 mph100%29.89 "HgN/A
10:47 PM77 °FClear.5 mph100%29.89 "Hg5 mi
10:00 PM77 °FPassing clouds.No wind100%29.89 "Hg3 mi
9:30 PM77 °FPassing clouds.No wind100%29.89 "Hg3 mi
9:00 PM77 °FPassing clouds.2 mph100%29.89 "Hg4 mi
8:00 PM79 °FClear.3 mph94%29.86 "HgN/A
7:30 PM79 °FWarm.2 mph94%29.86 "HgN/A
7:03 PM79 °FPassing clouds.3 mph94%29.86 "Hg5 mi
6:00 PM79 °FPassing clouds.1 mph94%29.83 "Hg4 mi
5:30 PM81 °FScattered clouds.5 mph89%29.83 "Hg5 mi
5:00 PM81 °FBroken clouds.5 mph94%29.80 "HgN/A
4:00 PM81 °FSprinkles. Broken clouds.7 mph89%29.80 "HgN/A
3:30 PM79 °FLots of rain. Cloudy.5 mph89%29.80 "Hg1 mi
3:03 PM79 °FSprinkles. Mostly cloudy.13 mph94%29.80 "Hg4 mi
2:30 PM82 °FBroken clouds.8 mph84%29.80 "HgN/A
2:00 PM82 °FPartly sunny.9 mph89%29.80 "HgN/A
1:00 PM84 °FBroken clouds.10 mph84%29.83 "HgN/A
12:30 PM82 °FPartly sunny.10 mph84%29.83 "HgN/A
12:00 PM82 °FMostly cloudy.10 mph84%29.83 "HgN/A
11:30 AM82 °FMostly cloudy.10 mph84%29.86 "HgN/A
11:00 AM82 °FMostly cloudy.10 mph84%29.86 "HgN/A
10:00 AM82 °FBroken clouds.10 mph84%29.89 "HgN/A
9:00 AM81 °FMostly cloudy.10 mph89%29.89 "HgN/A
8:30 AM81 °FMostly cloudy.10 mph89%29.86 "HgN/A
8:00 AM81 °FPartly sunny.10 mph89%29.86 "HgN/A
7:30 AM81 °FPartly sunny.12 mph89%29.86 "HgN/A
7:00 AM79 °FLow clouds.10 mph94%29.86 "HgN/A
6:30 AM79 °FMostly cloudy.9 mph94%29.86 "HgN/A
6:00 AM79 °FPassing clouds.9 mph94%29.86 "HgN/A
5:00 AM79 °FPassing clouds.8 mph94%29.86 "HgN/A
4:00 AM79 °FMostly cloudy.6 mph94%29.86 "HgN/A
3:00 AM79 °FPassing clouds.5 mph94%29.86 "HgN/A
2:30 AM79 °FPassing clouds.6 mph94%29.86 "HgN/A
2:00 AM79 °FPassing clouds.8 mph94%29.86 "HgN/A
Weather by CustomWeather, © 2016

See weather overviewHow to use our weather pages